User: anonymous   Login
Location: Unspecified
(20.0000°S, 0.0000°E)
Time: 20:21:19
(UTC+00:00)
Language:

KKS-1 - Orbit

View from above orbital plane
View from above orbital plane
View from above satellite
View from above satellite

Ground track
Ground track

The orbit data is extracted from the following two-line orbital elements,

1 33499U 09002H   19198.15783708  .00000070  00000-0  18411-4 0  9992
2 33499  98.3487  37.7706 0010387 112.7444 247.4863 14.75448466563424
Epoch (UTC): 17 July 2019 03:47:17
Eccentricity: 0.0010387
inclination: 98.3487°
perigee height: 636 km
apogee height: 651 km
right ascension of ascending node: 37.7706°
argument of perigee: 112.7444°
revolutions per day: 14.75448466
mean anomaly at epoch: 247.4863°
orbit number at epoch: 56342

The dashed part of the orbit path shows where the satellite is in the earth's shadow,  

DLR